Stanley, ID

4:33 AM MDT on April 30, 2017 (GMT -0600)
Stanley

Weather History for KSNT - September, 2013

Change the Weather History Date:

Sunday, September 1, 2013

  Actual Average Record
Temperature  
Mean Temperature 60 °F 52 °F  
Max Temperature 86 °F 73 °F 88 °F (1967)
Min Temperature 34 °F 31 °F 18 °F (1965)
Degree Days  
Heating Degree Days 5 13  
Month to date heating degree days 5 13  
Since 1 July heating degree days 332 533  
Cooling Degree Days 0 0  
Month to date cooling degree days 0 0  
Year to date cooling degree days 19 3  
Growing Degree Days 10 (Base 50)    
Moisture  
Dew Point 28 °F    
Average Humidity 38    
Maximum Humidity 64    
Minimum Humidity 11    
Precipitation  
Precipitation 0.00 in 0.03 in 0.51 in (2008)
Month to date precipitation 0.00 0.03  
Year to date precipitation 6.45 11.32  
Sea Level Pressure  
Sea Level Pressure 29.94 in    
Wind  
Wind Speed 2 mph (SSE)    
Max Wind Speed 13 mph    
Max Gust Speed 20 mph    
T = Trace of Precipitation, MM = Missing Value Source: NWS Daily Summary

Daily Weather History Graph

Daily Weather History Graph

Search for Another Location

Airport or City:

Trip Planner

Search our weather history database for the weather conditions in past years. The results will help you decide how hot, cold, wet, or windy it might be!

Date:

Astronomy

Sep. 01, 2013 Rise Set
Actual Time 7:03 AM MDT 8:15 PM MDT
Civil Twilight 6:33 AM MDT 8:45 PM MDT
Nautical Twilight 5:57 AM MDT 9:20 PM MDT
Astronomical Twilight 5:19 AM MDT 9:58 PM MDT
Moon 3:23 AM MDT (9/1) 5:59 PM MDT (9/1)
Length of Visible Light 14h 11m
Length of Day
13h 12m
Waning Crescent, 13% of the Moon is Illuminated
Sep 1
Waning Crescent
Sep 5
New
Sep 12
First Quarter
Sep 19
Full
Sep 26
Last Quarter

Hourly Weather History & Observations

Time (MDT) Temp. Dew Point Humidity Pressure Visibility Wind Dir Wind Speed Gust Speed Precip Events Conditions
12:51 AM 46.9 °F 26.1 °F 44% 29.95 in - Calm Calm - N/A   Unknown
1:51 AM 45.0 °F 25.0 °F 46% 29.95 in - Calm Calm - N/A   Unknown
2:51 AM 43.0 °F 25.0 °F 49% 29.96 in - Calm Calm - N/A   Unknown
3:51 AM 39.0 °F 24.1 °F 55% 29.96 in - Calm Calm - N/A   Unknown
4:51 AM 39.0 °F 24.1 °F 55% 29.96 in - Calm Calm - N/A   Unknown
5:51 AM 36.0 °F 24.1 °F 62% 29.98 in - Calm Calm - N/A   Unknown
6:51 AM 36.0 °F 25.0 °F 64% 29.99 in - Calm Calm - N/A   Unknown
7:51 AM 37.9 °F 26.1 °F 62% 30.04 in - Calm Calm - N/A   Unknown
8:51 AM 45.0 °F 28.0 °F 52% 30.06 in - Calm Calm - N/A   Unknown
9:51 AM 51.1 °F 28.9 °F 43% 30.04 in - Calm Calm - N/A   Unknown
10:51 AM 60.1 °F 30.0 °F 32% 30.01 in - Calm Calm - N/A   Unknown
11:51 AM 68.0 °F 28.0 °F 22% 29.95 in - Calm Calm - N/A   Unknown
12:51 PM 77.0 °F 30.9 °F 19% 29.91 in - Calm Calm - N/A   Unknown
1:51 PM 82.9 °F 27.0 °F 13% 29.86 in - ENE 9.2 mph - N/A   Unknown
2:51 PM 84.9 °F 24.1 °F 11% 29.85 in - SSE 10.4 mph 19.6 mph N/A   Unknown
3:51 PM 81.0 °F 25.0 °F 13% 29.88 in - South 6.9 mph - N/A   Unknown
4:51 PM 82.0 °F 26.1 °F 13% 29.86 in - Calm Calm - N/A   Unknown
5:51 PM 79.0 °F 28.0 °F 15% 29.87 in - SE 3.5 mph - N/A   Unknown
6:51 PM 72.0 °F 32.0 °F 23% 29.89 in - Calm Calm - N/A   Unknown
7:51 PM 66.9 °F 32.0 °F 27% 29.90 in - South 3.5 mph - N/A   Unknown
8:51 PM 59.0 °F 30.0 °F 33% 29.92 in - Calm Calm - N/A   Unknown
9:51 PM 55.9 °F 30.9 °F 39% - - SE 4.6 mph - N/A   Unknown
10:51 PM 59.0 °F 30.9 °F 35% - - SSE 6.9 mph - N/A   Unknown
11:51 PM 57.0 °F 30.0 °F 36% - - Calm Calm - N/A   Unknown